Regional Weather Roundup
Issued by NWS

Home | Current Version | Previous Version | Text Only | Print | Product List | Glossary Off
Versions: 1 2 3 4 5 6 7 8 9 10 11 12 13 14 15 16 17 18 19 20 21 22 23 24 25 26 27 28 29 30 31 32 33 34 35 36 37 38 39 40 41 42 43 44 45 46 47 48 49 50

000
ASUS44 KMEG 181500
RWRTN
TENNESSEE HOURLY STATE WEATHER ROUNDUP
NATIONAL WEATHER SERVICE MEMPHIS TN
900 AM CST WED JAN 18 2017

TNZ002-004-019-021-049-052-054-088>092-181600-
WEST TENNESSEE

CITY           SKY/WX    TMP DP  RH WIND       PRES   REMARKS
MEMPHIS INTL   CLOUDY    47  41  80 N7        30.23R
NWS MEMPHIS      N/A     46 N/A N/A MISG        N/A
JACKSON        CLOUDY    45  42  89 CALM      30.25R
DYERSBURG      CLOUDY    45  39  81 CALM      30.25R
UNION CITY     CLOUDY    43  43 100 CALM      30.24R
PARIS          CLOUDY    41  37  87 CALM      30.24R
$$

TNZ008-025-027-028-033-062-065-066-181600-
NORTH MIDDLE TENNESSEE

CITY           SKY/WX    TMP DP  RH WIND       PRES   REMARKS
NASHVILLE      CLOUDY    46  39  76 E3        30.25R
CLARKSVILLE    CLOUDY    44  38  79 CALM      30.25R
SMYRNA         CLOUDY    45  41  86 VRB3      30.26R
CROSSVILLE     CLOUDY    45  41  86 N3        30.20R
$$

TNZ061-075-076-078-094-096-097-181600-
SOUTH MIDDLE TENNESSEE

CITY           SKY/WX    TMP DP  RH WIND       PRES   REMARKS
TULLAHOMA      CLOUDY    46  43  87 VRB3      30.23R
WINCHESTER     CLOUDY    48  45  87 VRB5      30.22R
MCMINNVILLE    CLOUDY    46  45  93 N5        30.22R
COLUMBIA       CLOUDY    46  46 100 NE6       30.21R
SHELBYVILLE    CLOUDY    48  45  87 N5        30.24R
$$

TNZ017-018-042-046-047-181600-
NORTHEAST TENNESSEE

CITY           SKY/WX    TMP DP  RH WIND       PRES   REMARKS
TRI CITIES     PTSUNNY   52  43  71 W10       30.16R
$$

TNZ012-013-036-069-073-074-181600-
CENTRAL EAST TENNESSEE

CITY           SKY/WX    TMP DP  RH WIND       PRES   REMARKS
KNOXVILLE      MOSUNNY   53  44  71 NW6       30.18R
OAK RIDGE      SUNNY     53  43  68 CALM      30.20R
GATLINBURG     MOSUNNY   50  45  81 W6        30.18R
$$

TNZ083-085-099-181600-
SOUTHEAST TENNESSEE

CITY           SKY/WX    TMP DP  RH WIND       PRES   REMARKS
CHATTANOOGA    PTSUNNY   57  46  66 N9        30.20R
$$

SKY/WX REPORTED AS FAIR MEANS FEW OR NO CLOUDS BELOW
12 THOUSAND FEET.




USA.gov is the U.S. government's official web portal to all federal, state and local government web resources and services.